Regional Weather Roundup
Issued by NWS

Home | Current Version | Previous Version | Text Only | Print | Product List | Glossary Off
Versions: 1 2 3 4 5 6 7 8 9 10 11 12 13 14 15 16 17 18 19 20 21 22 23 24 25 26 27 28 29 30 31 32 33 34 35 36 37 38 39 40 41 42 43 44 45 46 47 48 49 50

000
ASUS43 KBIS 220220
RWRND

NORTH DAKOTA REGIONAL WEATHER ROUNDUP
NATIONAL WEATHER SERVICE BISMARCK ND
900 PM CDT MON JUL 21 2014

NOTE: "FAIR" INDICATES FEW OR NO CLOUDS BELOW 12,000 FEET WITH NO
SIGNIFICANT WEATHER AND/OR OBSTRUCTIONS TO VISIBILITY.


NDZ001>003-009>011-017-220300-
NORTHWEST NORTH DAKOTA

CITY           SKY/WX    TMP DP  RH WIND       PRES   REMARKS
WILLISTON      MOCLDY    74  57  55 NE10      29.95R
MINOT          CLOUDY    66  63  90 N5        29.88R
MINOT AFB      CLOUDY    67  66  97 N7        29.87R
$$

NDZ018>021-031>035-040>046-220300-
SOUTHWEST NORTH DAKOTA

CITY           SKY/WX    TMP DP  RH WIND       PRES   REMARKS
BISMARCK       CLOUDY    67  63  87 N15       29.87R
DICKINSON      MOCLDY    67  61  81 N14       29.94R
GARRISON         N/A     66  63  90 NE3       29.90R
HETTINGER ARPT CLEAR     71  63  75 N13G25    29.95R
$$

NDZ004>008-012>016-024-026-027-054-220300-
NORTHEAST NORTH DAKOTA

CITY           SKY/WX    TMP DP  RH WIND       PRES   REMARKS
GRAND FORKS    TSTM      66  66 100 SW23G45   29.75R FOG
GRND FRKS AFB  TSTM      68  68 100 N14G25    29.77R FOG
DEVILS LAKE    CLOUDY    64  61  88 E18       29.81F
$$

NDZ022-023-025-028>030-036>039-047>053-220300-
SOUTHEAST NORTH DAKOTA

CITY           SKY/WX    TMP DP  RH WIND       PRES   REMARKS
FARGO          TSTM      69  65  86 NW16G30   29.75R FOG
JAMESTOWN      LGT RAIN  68  62  81 N32G48    29.73F
$$




USA.gov is the U.S. government's official web portal to all federal, state and local government web resources and services.